Cloud_Cover
96 100 100 100 100 100 100 87 5 0 4 4 5 3 9 33 5 47 14 3 0 0 3 0 5 0 0 0 0 0 0 0 0 0 0 0 0 5 11 0 0 0 0 0 0 0 0 0 0
8 56 88 100 100 100 100 67 40 80 73 34 20 4 1 10 2 6 2 2 4 2 5 11 0 5 0 0 0 0 0 0 0 0 0 0 0 12 8 0 0 0 0 0 0 0 0 0 0
49 62 12 59 93 46 14 4 5 4 5 5 1 1 3 0 0 1 0 0 0 0 0 20 0 0 0 0 0 0 0 0 0 0 0 0 0 2 6 0 0 0 0 0 0 0 0 0 0
0 0 0 0 2 2 0 0 0 0 0 0 0 0 0 0 0 0 0 0 0 0 6 34 2 0 2 0 0 0 0 0 0 0 0 0 1 0 0 0 0 0 0 0 0 0 0 0 2
0 0 0 0 0 0 0 0 0 0 0 0 0 0 0 0 0 0 0 0 0 15 9 36 1 11 2 0 6 4 0 0 0 0 0 0 0 0 0 0 0 0 0 0 0 0 0 2 4
0 0 0 0 0 0 0 0 0 0 0 0 0 0 0 0 0 0 0 0 0 21 16 8 0 3 2 16 29 7 0 0 0 0 0 0 0 0 0 0 0 0 0 0 0 0 0 0 0
5 0 0 0 0 1 46 2 0 0 0 0 0 0 0 0 0 0 0 4 13 22 30 21 7 0 0 22 46 21 1 0 0 0 0 0 0 0 0 0 0 0 0 0 0 0 0 0 0
19 2 0 1 18 31 100 97 2 0 0 0 0 0 0 0 0 12 16 25 41 54 38 61 45 33 33 65 51 32 10 2 5 5 0 0 0 0 0 0 0 0 0 0 0 0 0 0 6
32 5 2 5 36 38 100 100 100 37 0 0 0 0 0 0 0 0 4 42 89 93 99 100 93 39 92 99 80 34 28 9 8 5 0 10 1 0 5 5 0 0 0 0 0 0 0 0 14
1 0 4 5 9 17 100 100 100 74 30 5 5 3 3 5 9 78 36 5 12 68 100 92 78 100 100 100 98 60 87 91 68 59 33 33 24 15 64 5 3 0 0 0 1 0 0 6 82
0 0 4 0 0 2 0 6 77 91 4 5 73 3 0 4 4 24 37 5 21 6 51 81 99 100 100 100 100 100 100 100 100 100 100 63 41 34 29 36 25 14 2 14 10 26 26 35 100
4 5 5 5 25 67 5 5 100 92 63 94 100 100 5 1 0 4 5 2 4 4 16 76 100 100 100 88 100 100 100 100 100 100 100 100 99 83 99 39 35 26 26 16 15 22 22 28 75
38 9 9 5 2 5 4 5 5 97 100 100 100 20 8 3 5 5 3 0 3 3 9 75 100 100 100 97 100 100 100 100 100 100 100 100 100 99 88 65 40 34 31 18 26 14 25 33 37
18 4 10 69 99 20 5 37 5 98 100 100 57 100 83 25 5 5 5 0 4 1 95 28 82 82 100 100 86 100 100 100 100 100 100 99 100 100 100 97 45 38 29 28 27 13 21 30 33
60 26 97 84 23 96 17 5 98 100 99 100 100 100 22 5 15 42 23 4 5 5 7 100 23 43 68 97 100 100 100 100 100 100 100 100 100 100 100 100 70 33 34 28 30 22 15 26 28
100 100 95 86 87 92 41 2 85 1 4 84 100 100 100 100 66 68 100 91 7 5 10 63 3 15 23 20 46 68 99 100 100 100 100 100 100 100 100 100 100 41 36 56 34 36 38 28 68
0 0 0 1 5 0 0 0 12 0 0 1 54 82 100 100 100 100 100 100 100 98 94 100 53 1 4 3 9 12 52 62 64 68 96 100 100 97 100 55 75 39 58 67 34 68 18 98 97
0 0 0 4 1 0 0 0 0 0 0 0 1 14 64 100 100 100 100 100 100 58 49 100 98 5 2 4 9 37 55 26 42 14 27 58 94 95 68 53 62 52 100 100 55 22 88 95 99
2 2 4 5 0 0 0 0 0 0 0 0 0 0 5 5 91 100 100 100 100 78 5 98 100 15 15 5 32 74 56 81 75 38 9 16 72 58 68 89 48 100 100 100 91 100 100 100 100
0 0 0 0 0 2 0 2 0 0 0 0 0 0 0 3 0 2 5 77 100 100 34 6 83 100 88 2 5 5 5 57 61 92 67 100 76 44 92 88 97 100 100 95 100 100 100 100 100
4 3 2 38 2 0 4 32 0 0 0 0 0 0 0 0 0 0 3 14 84 100 99 32 54 73 100 65 35 94 52 61 100 100 97 63 100 74 33 85 86 100 100 100 100 86 100 100 100
0 11 85 21 72 99 19 76 0 0 0 0 0 0 0 0 0 0 3 100 100 99 100 92 44 85 100 76 8 79 23 72 88 80 81 99 100 100 100 100 98 100 100 100 100 99 45 100 100
0 6 99 65 100 83 0 77 0 0 0 0 0 0 0 0 0 0 0 100 100 100 98 100 100 100 100 100 98 100 29 48 44 42 99 100 100 100 100 100 100 100 100 100 100 82 89 100 100
5 8 5 42 64 92 79 100 38 64 100 99 80 4 0 0 0 0 0 90 100 9 33 83 100 100 100 86 94 100 100 47 52 73 78 100 100 100 100 100 100 83 100 100 100 100 100 100 100
6 36 36 5 38 44 100 91 58 93 100 86 100 100 100 96 53 21 3 44 8 77 70 89 100 100 92 81 100 100 86 98 100 100 100 100 100 100 100 100 100 100 100 100 100 100 100 100 100
6 93 100 84 22 10 99 100 100 99 100 100 100 100 100 100 90 58 33 85 84 100 100 81 100 100 100 100 99 59 96 100 100 100 100 100 100 100 100 100 100 100 100 100 99 100 100 100 76
67 97 44 95 100 100 100 100 100 100 100 100 100 100 100 100 100 99 88 100 100 100 87 90 93 53 100 100 100 100 93 100 100 100 100 100 100 100 100 100 100 100 100 100 100 100 93 76 98
76 91 89 79 98 100 100 100 100 100 100 100 100 100 100 100 100 100 100 100 100 87 29 39 79 100 100 100 100 100 100 100 100 100 100 100 100 100 100 100 100 100 100 100 100 100 92 99 100
65 92 93 98 100 100 100 100 100 100 100 100 100 100 100 100 100 100 100 100 100 87 87 94 75 88 100 77 51 87 100 100 100 100 100 100 100 100 100 100 98 100 100 100 100 100 100 100 100
86 98 88 100 100 100 100 100 100 100 100 100 100 100 100 100 100 100 100 100 100 100 100 100 100 100 100 100 100 100 100 100 100 100 100 52 95 100 100 100 99 100 100 100 100 100 100 100 100